Location: Newark
(43.6583°N, 1.6617°E)
Time: 07:10:47
(UTC+00:00)

Vanguard 1 Rocket - Pass Details

Date: 23 August 2019
Orbit: 652 x 4225 km, 34.3° (Epoch: 15 September)

Event Time Altitude Azimuth Distance (km) Brightness Sun altitude
Rises 04:02:35 0° 253° (WSW) 3,037 - -11.5°
Reaches altitude 10° 04:04:46 10° 243° (WSW) 2,243 - -11.1°
Exits shadow 04:05:33 15° 237° (WSW) 1,996 8.5 -11.0°
Maximum altitude 04:09:19 35° 177° (S) 1,466 8.3 -10.4°
Drops below altitude 10° 04:16:18 10° 115° (ESE) 3,471 11.0 -9.3°
Sets 04:20:34 0° 108° (ESE) 5,011 12.0 -8.6°
